Location: Boiro
(42.6475°N, 8.8834°W)
Time: 07:08:48
(UTC+02:00)

FALCONSAT-6 - Pass Details

Date: 12 July 2022
Orbit: 555 x 585 km, 97.6° (Epoch: 10 August)

Event Time Altitude Azimuth Distance (km) Brightness Sun altitude
Exits shadow 22:58:52 - 108° (ESE) 2,057 ? -7.7°
Reaches altitude 10° 22:59:28 10° 102° (ESE) 1,898 ? -7.7°
Maximum altitude 23:01:56 16° 65° (ENE) 1,559 ? -8.1°
Drops below altitude 10° 23:04:25 10° 27° (NNE) 1,898 ? -8.4°
Sets 23:07:16 0° 6° (N) 2,796 ? -8.8°
